星链-32338 (STARLINK-32338)

导读

STARLINK-32338是美国SpaceX星链互联网卫星星座的一员,于2024年10月15日发射入轨。星链星座旨在为全球提供高速低延迟卫星互联网服务,该卫星加入星座后,进一步扩大了星链的服务覆盖范围,提升了星座整体通信容量,支撑星链在民用通信、特殊场景联网以及军用互联等多领域的服务能力。

基本信息
目录编号:
61519
目录名称:
STARLINK-32338
国际标识:
2024-183L
轨道中心:
EARTH
卫星名称:
星链-32338
卫星全名:
星链-32338 (STARLINK-32338)
卫星状态:
在轨 (已飞行610 天)
发射日期:
2024-10-15 UTC
国别 :
美国 (US)
星等 :
--
轨道信息
数据来源 国际轨道数据
星历时间: 2026-06-17T06:26:57+0800
1天前
查看轨道信息
半长轴: 6796.87km
偏心率: 0.0001018
轨道倾角: 53.161°
近地点辐角 79.517°
升交点赤经 36.034°
平近点角 280.596°
近地点: 418.041km
远地点: 419.425km
周期: 92.944分钟
每日圈数: 15.493136
详细信息
固有亮度:
5
最大亮度:
2.5
卫星平台:
Starlink V1.0
覆盖范围:
全球
运营商:
太空探索技术公司
运营商所在国:
美国
制造商(研发单位):
太空探索技术公司
制造商所在国:
美国
使用方式:
暂无
卫星简介
Starlink 计划是 SpaceX 推出的全球卫星互联网项目,通过发射低轨道卫星,为全球尤其是偏远地区提供高速、低延迟的互联网服务。自 2019 年起,Starlink 已部署数千颗卫星,旨在缩小全球数字鸿沟,推动互联网普及。该项目还为军事、航空等行业提供通信支持,带来广泛经济效益。
2D轨道图
3D轨道图
轨道高度分析图
轨道倾角分析图
轨道综合分析图
查看轨道综合分析图